Погода в Таловке

Россия / Волгоградская область     50°35′59″N   43°33′41″E
темп.,
°C
ветер,
м/с
пор.,
м/с
влажн.,
%
обл.,
%
осадки,
мм/ч
давл.,
гПа
погр.,
м
18 мая, ср
ср1800:00+6зюз498532 0.0 1008163
03:00+5зюз512860 0.0 1008237
06:00+7з510810 0.0 1008319
09:00+12зсз68615 0.0 10091058
12:00+15з674790 0.3 10092197
15:00+15з5543100 0.3 10102120
18:00+13сз3462100 0.0 1011239
21:00+9с2274100 0.1 101210
19 мая, чт
чт1900:00+8св118385 0.0 101211
03:00+7с22894 0.0 101311
06:00+9ссв238471 0.0 1014112
09:00+13с2363100 0.0 1015806
12:00+16сз3350100 0.1 10141920
15:00+16ссз5450100 0.1 10141604
18:00+13сз376691 0.0 1014270
21:00+12ссз4762100 0.0 1014199
20 мая, пт
пт2000:00+9ссз357176 0.0 101480
03:00+8ссз3481100 0.0 101367
06:00+8с598890 0.3 1015367
09:00+12с68560 0.3 10161313
12:00+14сз794590 0.0 10162311
15:00+14ссз894388 0.0 10152284
18:00+11с575869 0.0 10161187
21:00+7ссз2271100 0.0 101721
21 мая, сб
сб2100:00+7сз116898 0.0 101510
03:00+6ююв2268100 0.0 101426
06:00+6вюв3586100 0.9 1012186
09:00+6вюв71295100 3.7 1008650
12:00+6в81497100 12.4 1004748
15:00+5всв91495100 26.9 1001671
18:00+3св101797100 5.6 1003694
21:00+4с7159052 5.6 1006753
22 мая, вс
вс2200:00+3сз411945 0.0 1006270
03:00+3ссз613944 0.0 1008317
06:00+4сз511893 0.0 1010445
09:00+8ссз69612 0.0 10101288
12:00+12ссз684995 0.0 10091886
15:00+13ссз664698 0.0 10092149
18:00+11ссз3559100 0.0 1008305
21:00+7в3471100 0.1 100958